This is the latest recevied weather packets stored in our database for station/object KK7PZE-13. If no packets are shown the sender has not sent any weather packets the latest 10 day(s).
| Time | Temp. | Humidity | Pressure | Rain* | Wind** | Luminosity | Snow |
|---|---|---|---|---|---|---|---|
| 1777513559 | 25° C | 12% | 1011.2 hPa | 0 mm | - | - | - |
| 1777512959 | 25° C | 12% | 1011.1 hPa | 0 mm | - | - | - |
| 1777512359 | 25.56° C | 11% | 1011.3 hPa | 0 mm | - | - | - |
| 1777511759 | 25.56° C | 11% | 1011.5 hPa | 0 mm | - | - | - |
| 1777511159 | 25.56° C | 11% | 1011.5 hPa | 0 mm | - | - | - |
| 1777510559 | 26.11° C | 11% | 1011.6 hPa | 0 mm | - | - | - |
| 1777509959 | 26.11° C | 11% | 1011.5 hPa | 0 mm | - | - | - |
| 1777509359 | 26.11° C | 11% | 1011.2 hPa | 0 mm | - | - | - |
| 1777508761 | 26.11° C | 11% | 1011.4 hPa | 0 mm | - | - | - |
| 1777508159 | 26.67° C | 10% | 1011.5 hPa | 0 mm | - | - | - |
| 1777507561 | 26.67° C | 10% | 1011.6 hPa | 0 mm | - | - | - |
| 1777506959 | 27.22° C | 10% | 1011.4 hPa | 0 mm | - | - | - |
| 1777506358 | 27.22° C | 10% | 1011.3 hPa | 0 mm | - | - | - |
| 1777505532 | 27.22° C | 11% | 1011.5 hPa | 0 mm | - | - | - |
| 1777505159 | 27.22° C | 11% | 1011.5 hPa | 0 mm | - | - | - |
| 1777504559 | 27.78° C | 11% | 1011.5 hPa | 0 mm | - | - | - |
| 1777503959 | 27.78° C | 12% | 1011.6 hPa | 0 mm | - | - | - |
| 1777503359 | 27.78° C | 11% | 1011.7 hPa | 0 mm | - | - | - |
| 1777502758 | 27.78° C | 11% | 1011.8 hPa | 0 mm | - | - | - |
| 1777502159 | 27.78° C | 11% | 1011.8 hPa | 0 mm | - | - | - |
| 1777501559 | 27.78° C | 11% | 1012.1 hPa | 0 mm | - | - | - |
| 1777499759 | 28.33° C | 11% | 1012.5 hPa | 0 mm | - | - | - |
| 1777499162 | 28.33° C | 11% | 1012.8 hPa | 0 mm | - | - | - |
| 1777498559 | 28.33° C | 11% | 1012.5 hPa | 0 mm | - | - | - |
| 1777497359 | 27.78° C | 11% | 1012.6 hPa | 0 mm | - | - | - |
* Rain latest hour (hover to see other rain measurements)
** Current wind speed in m/s (hover to see current wind gust speed)